When you browse on this site, cookies collect data to enhance your experience and personalize the content and advertising you see.
Visit our Privacy Policy to learn more. By continuing to use the site, you agree to this use of cookies and data.
  • In Latvia
  • List of Countries
  • For 7 days
  • Water Temperature
  • Satellite Maps
  • Weather Map
  • Weather Widgets
  • user-avatar
    Login

    Hourly Weather Chien

    Today, 19 January, Saturday

    Time Temperature Precipitation Wind Pressure Humidity
    00:00 +26°C° 0 mm 1 mps 741 mmHg 93%
    01:00 +25°C° 0 mm 1 mps 741 mmHg 95%
    02:00 +25°C° 0 mm 1 mps 740 mmHg 97%
    03:00 +25°C° 0 mm 1 mps 740 mmHg 97%
    04:00 +25°C° 0 mm 1 mps 741 mmHg 97%
    05:00 +25°C° 0 mm 1 mps 741 mmHg 98%
    06:00 +26°C° 0 mm 1 mps 741 mmHg 90%
    07:00 +28°C° 0 mm 1 mps 741 mmHg 82%
    08:00 +29°C° 0 mm 1 mps 742 mmHg 73%
    09:00 +32°C° 0.1 mm 1 mps 742 mmHg 64%
    10:00 +34°C° 0.1 mm 1 mps 742 mmHg 55%
    11:00 +37°C° 0.1 mm 1 mps 741 mmHg 46%
    12:00 +36°C° 1.1 mm 1 mps 741 mmHg 49%
    13:00 +35°C° 1.1 mm 1 mps 740 mmHg 53%
    14:00 +34°C° 1.1 mm 1 mps 740 mmHg 57%
    15:00 +33°C° 0.7 mm 1 mps 740 mmHg 62%
    16:00 +31°C° 0.7 mm 1 mps 740 mmHg 67%
    17:00 +30°C° 0.7 mm 1 mps 740 mmHg 72%
    18:00 +29°C° 0.2 mm 1 mps 740 mmHg 76%
    19:00 +28°C° 0.2 mm 1 mps 740 mmHg 81%
    20:00 +27°C° 0.2 mm 1 mps 741 mmHg 86%
    21:00 +26°C° 0 mm 1 mps 741 mmHg 88%
    22:00 +26°C° 0 mm 1 mps 741 mmHg 90%
    23:00 +26°C° 0 mm 1 mps 741 mmHg 91%

    Tomorrow, 20 January, Sunday

    Time Temperature Precipitation Wind Pressure Humidity
    00:00 +25°C° 0 mm 1 mps 741 mmHg 94%
    01:00 +25°C° 0 mm 1 mps 740 mmHg 96%
    02:00 +25°C° 0 mm 1 mps 740 mmHg 98%
    03:00 +25°C° 0.3 mm 1 mps 740 mmHg 98%
    04:00 +25°C° 0.3 mm 1 mps 740 mmHg 98%
    05:00 +25°C° 0.3 mm 1 mps 740 mmHg 97%
    06:00 +26°C° 1.3 mm 1 mps 741 mmHg 93%
    07:00 +27°C° 1.3 mm 1 mps 741 mmHg 88%
    08:00 +28°C° 1.3 mm 1 mps 742 mmHg 83%
    09:00 +31°C° 0.3 mm 1 mps 742 mmHg 70%
    10:00 +34°C° 0.3 mm 1 mps 742 mmHg 56%
    11:00 +34°C° 0.3 mm 0 mps 742 mmHg 43%
    12:00 +34°C° 0.4 mm 0 mps 741 mmHg 45%
    13:00 +33°C° 0.4 mm 0 mps 740 mmHg 47%
    14:00 +32°C° 0.4 mm 0 mps 740 mmHg 49%
    15:00 +33°C° 0.1 mm 1 mps 740 mmHg 54%
    16:00 +32°C° 0.1 mm 1 mps 740 mmHg 59%
    17:00 +31°C° 0.1 mm 2 mps 740 mmHg 64%
    18:00 +29°C° 0 mm 1 mps 740 mmHg 71%
    19:00 +28°C° 0 mm 1 mps 741 mmHg 77%
    20:00 +27°C° 0 mm 1 mps 741 mmHg 83%
    21:00 +27°C° 0 mm 1 mps 742 mmHg 85%
    22:00 +26°C° 0 mm 1 mps 742 mmHg 87%
    23:00 +26°C° 0 mm 1 mps 742 mmHg 89%

    Day after tomorrow, 21 January, Monday

    Time Temperature Precipitation Wind Pressure Humidity
    00:00 +26°C° 0 mm 1 mps 741 mmHg 90%
    01:00 +26°C° 0 mm 1 mps 741 mmHg 90%
    02:00 +26°C° 0 mm 1 mps 741 mmHg 90%
    03:00 +26°C° 0 mm 1 mps 741 mmHg 91%
    04:00 +26°C° 0 mm 1 mps 741 mmHg 92%
    05:00 +25°C° 0 mm 1 mps 741 mmHg 93%
    06:00 +26°C° 0 mm 1 mps 741 mmHg 89%
    07:00 +27°C° 0 mm 1 mps 742 mmHg 84%
    08:00 +28°C° 0 mm 1 mps 742 mmHg 80%
    09:00 +30°C° 0.1 mm 1 mps 742 mmHg 71%
    10:00 +32°C° 0.1 mm 1 mps 742 mmHg 62%
    11:00 +34°C° 0.1 mm 1 mps 742 mmHg 52%
    12:00 +35°C° 0 mm 1 mps 741 mmHg 49%
    13:00 +36°C° 0 mm 1 mps 740 mmHg 45%
    14:00 +35°C° 0 mm 0 mps 739 mmHg 41%
    15:00 +35°C° 0 mm 1 mps 739 mmHg 45%
    16:00 +34°C° 0 mm 1 mps 739 mmHg 48%
    17:00 +33°C° 0 mm 1 mps 739 mmHg 52%
    18:00 +31°C° 0 mm 1 mps 740 mmHg 61%
    19:00 +29°C° 0 mm 1 mps 740 mmHg 70%
    20:00 +27°C° 0 mm 1 mps 741 mmHg 79%
    21:00 +27°C° 0 mm 1 mps 741 mmHg 83%
    22:00 +26°C° 0 mm 1 mps 741 mmHg 86%
    23:00 +26°C° 0 mm 1 mps 741 mmHg 89%

    22 January, Tuesday

    Time Temperature Precipitation Wind Pressure Humidity
    00:00 +26°C° 0 mm 1 mps 741 mmHg 91%
    01:00 +25°C° 0 mm 1 mps 740 mmHg 94%
    02:00 +25°C° 0 mm 1 mps 740 mmHg 96%
    03:00 +25°C° 0 mm 1 mps 740 mmHg 97%
    04:00 +25°C° 0 mm 1 mps 740 mmHg 97%
    05:00 +24°C° 0 mm 1 mps 740 mmHg 98%
    06:00 +26°C° 0 mm 1 mps 741 mmHg 91%
    07:00 +27°C° 0 mm 1 mps 741 mmHg 85%
    08:00 +28°C° 0 mm 1 mps 742 mmHg 78%
    09:00 +30°C° 0 mm 1 mps 742 mmHg 71%
    10:00 +31°C° 0 mm 1 mps 741 mmHg 64%
    11:00 +32°C° 0 mm 1 mps 741 mmHg 58%
    12:00 +34°C° 0 mm 1 mps 740 mmHg 50%
    13:00 +36°C° 0 mm 1 mps 739 mmHg 43%
    14:00 +39°C° 0 mm 1 mps 739 mmHg 36%
    15:00 +36°C° 0.1 mm 1 mps 738 mmHg 43%
    16:00 +34°C° 0.1 mm 2 mps 738 mmHg 51%
    17:00 +31°C° 0.1 mm 2 mps 738 mmHg 59%
    18:00 +30°C° 0 mm 2 mps 739 mmHg 67%
    19:00 +28°C° 0 mm 2 mps 739 mmHg 74%
    20:00 +27°C° 0 mm 2 mps 740 mmHg 81%
    21:00 +26°C° 0 mm 1 mps 740 mmHg 85%
    22:00 +26°C° 0 mm 1 mps 740 mmHg 88%
    23:00 +26°C° 0 mm 1 mps 740 mmHg 92%

    23 January, Wednesday

    Time Temperature Precipitation Wind Pressure Humidity
    00:00 +25°C° 0 mm 1 mps 740 mmHg 93%
    01:00 +25°C° 0 mm 1 mps 739 mmHg 94%
    02:00 +25°C° 0 mm 1 mps 739 mmHg 95%
    03:00 +25°C° 0 mm 1 mps 739 mmHg 96%
    04:00 +24°C° 0 mm 1 mps 739 mmHg 97%
    05:00 +24°C° 0 mm 1 mps 739 mmHg 98%
    06:00 +25°C° 0 mm 1 mps 740 mmHg 91%
    07:00 +27°C° 0 mm 1 mps 741 mmHg 84%
    08:00 +28°C° 0 mm 1 mps 741 mmHg 77%
    09:00 +29°C° 0 mm 1 mps 741 mmHg 72%
    10:00 +30°C° 0 mm 1 mps 740 mmHg 67%
    11:00 +31°C° 0 mm 1 mps 740 mmHg 62%
    12:00 +32°C° 0 mm 1 mps 739 mmHg 55%
    13:00 +34°C° 0 mm 1 mps 739 mmHg 48%
    14:00 +36°C° 0 mm 1 mps 738 mmHg 41%
    15:00 +35°C° 0 mm 1 mps 738 mmHg 44%
    16:00 +34°C° 0 mm 1 mps 738 mmHg 47%
    17:00 +33°C° 0 mm 1 mps 738 mmHg 51%
    18:00 +31°C° 0 mm 2 mps 738 mmHg 60%
    19:00 +29°C° 0 mm 2 mps 739 mmHg 70%
    20:00 +28°C° 0 mm 2 mps 739 mmHg 79%
    21:00 +27°C° 0 mm 2 mps 739 mmHg 83%
    22:00 +26°C° 0 mm 2 mps 739 mmHg 86%
    23:00 +26°C° 0 mm 1 mps 740 mmHg 90%

    24 January, Thursday

    Time Temperature Precipitation Wind Pressure Humidity
    00:00 +25°C° 0 mm 1 mps 739 mmHg 91%
    01:00 +25°C° 0 mm 1 mps 739 mmHg 93%
    02:00 +25°C° 0 mm 1 mps 738 mmHg 95%
    03:00 +25°C° 0 mm 1 mps 738 mmHg 95%
    04:00 +25°C° 0 mm 1 mps 739 mmHg 95%
    05:00 +25°C° 0 mm 1 mps 739 mmHg 95%
    06:00 +26°C° 0 mm 1 mps 739 mmHg 89%
    07:00 +27°C° 0 mm 2 mps 740 mmHg 83%
    08:00 +28°C° 0 mm 2 mps 741 mmHg 77%
    09:00 +30°C° 0 mm 2 mps 740 mmHg 70%
    10:00 +31°C° 0 mm 1 mps 740 mmHg 63%
    11:00 +32°C° 0 mm 1 mps 740 mmHg 57%
    12:00 +34°C° 0.1 mm 1 mps 739 mmHg 52%
    13:00 +35°C° 0.1 mm 1 mps 738 mmHg 48%
    14:00 +37°C° 0.1 mm 2 mps 737 mmHg 43%
    15:00 +35°C° 0 mm 2 mps 737 mmHg 48%
    16:00 +34°C° 0 mm 2 mps 737 mmHg 53%
    17:00 +32°C° 0 mm 2 mps 737 mmHg 58%
    18:00 +30°C° 0.1 mm 2 mps 738 mmHg 66%
    19:00 +29°C° 0.1 mm 2 mps 739 mmHg 75%
    20:00 +27°C° 0.1 mm 2 mps 739 mmHg 83%
    21:00 +27°C° 0 mm 2 mps 739 mmHg 85%
    22:00 +26°C° 0 mm 2 mps 740 mmHg 87%
    23:00 +26°C° 0 mm 2 mps 740 mmHg 90%
    Show more